Fort Belvoir, VA

11:00 PM EDT on July 26, 2017 (GMT -0400)
Davison Army Air Field

Weather History for KDAA - November, 2013

Change the Weather History Date:

Saturday, November 2, 2013

  Actual Average Record
Temperature  
Mean Temperature 59 °F -  
Max Temperature 69 °F 61 °F 80 °F (2001)
Min Temperature 49 °F 39 °F 32 °F (2010)
Degree Days  
Heating Degree Days 6    
Growing Degree Days 9 (Base 50)    
Moisture  
Dew Point 50 °F    
Average Humidity 85    
Maximum Humidity 100    
Minimum Humidity 38    
Precipitation  
Precipitation 0.00 in - - ()
Sea Level Pressure  
Sea Level Pressure 29.71 in    
Wind  
Wind Speed 2 mph (NW)    
Max Wind Speed 13 mph    
Max Gust Speed 22 mph    
Visibility 4 miles    
Events Rain    
Averages and records for this station are not official NWS values.
T = Trace of Precipitation, MM = Missing Value Source: NWS Daily Summary

Daily Weather History Graph

Daily Weather History Graph

Search for Another Location

Airport or City:

Trip Planner

Search our weather history database for the weather conditions in past years. The results will help you decide how hot, cold, wet, or windy it might be!

Date:

Astronomy

Nov. 02, 2013 Rise Set
Actual Time 7:36 AM EDT 6:07 PM EDT
Civil Twilight 7:09 AM EDT 6:34 PM EDT
Nautical Twilight 6:37 AM EDT 7:06 PM EDT
Astronomical Twilight 6:06 AM EDT 7:37 PM EDT
Moon 6:32 AM EDT (11/2) 5:36 PM EDT (11/2)
Length of Visible Light 11h 25m
Length of Day
10h 30m
Waning Crescent, 1% of the Moon is Illuminated
Nov 2
Waning Crescent
Nov 3
New
Nov 10
First Quarter
Nov 17
Full
Nov 25
Last Quarter

Hourly Weather History & Observations

Time (EDT) Temp. Dew Point Humidity Pressure Visibility Wind Dir Wind Speed Gust Speed Precip Events Conditions
12:03 AM 59.0 °F 59.0 °F 100% 29.67 in 2.5 mi Calm Calm - N/A   Overcast
12:08 AM 57.2 °F 57.2 °F 100% 29.67 in 2.5 mi Calm Calm - N/A   Overcast
12:18 AM 57.2 °F 57.2 °F 100% 29.67 in 3.0 mi Calm Calm - N/A   Overcast
12:33 AM 57.2 °F 57.2 °F 100% 29.66 in 3.0 mi West 2.3 mph - N/A   Scattered Clouds
12:38 AM 57.2 °F 57.2 °F 100% 29.67 in 3.0 mi WNW 2.3 mph - N/A   Scattered Clouds
12:43 AM 57.2 °F 57.2 °F 100% 29.67 in 3.0 mi WSW 3.5 mph - N/A   Scattered Clouds
12:48 AM 57.2 °F 57.2 °F 100% 29.67 in 3.0 mi Calm Calm - N/A   Scattered Clouds
12:53 AM 57.2 °F 57.2 °F 100% 29.68 in 2.5 mi Calm Calm - N/A   Mostly Cloudy
12:58 AM 56.8 °F 56.7 °F 99% 29.68 in 2.5 mi NNE 2.3 mph - N/A   Mostly Cloudy
1:13 AM 57.2 °F 57.2 °F 100% 29.67 in 3.0 mi WSW 1.2 mph - N/A   Scattered Clouds
1:28 AM 57.2 °F 57.2 °F 100% 29.67 in 2.5 mi NNE 2.3 mph - N/A   Scattered Clouds
1:43 AM 57.2 °F 57.2 °F 100% 29.67 in 3.0 mi WNW 1.2 mph - N/A   Partly Cloudy
1:58 AM 55.4 °F 55.4 °F 100% 29.68 in 2.5 mi NW 1.2 mph - N/A   Scattered Clouds
2:13 AM 57.2 °F 57.2 °F 100% 29.67 in 3.0 mi West 4.6 mph - N/A   Mostly Cloudy
2:23 AM 55.4 °F 55.4 °F 100% 29.67 in 3.0 mi North 1.2 mph - N/A   Scattered Clouds
2:28 AM 55.4 °F 55.4 °F 100% 29.67 in 2.5 mi Calm Calm - N/A   Scattered Clouds
2:43 AM 55.4 °F 55.4 °F 100% 29.67 in 3.0 mi West 1.2 mph - N/A   Partly Cloudy
2:58 AM 54.5 °F 54.1 °F 99% 29.68 in 3.0 mi WNW 1.2 mph - N/A   Clear
3:03 AM 53.6 °F 53.6 °F 100% 29.66 in 1.0 mi NW 2.3 mph - N/A   Clear
3:08 AM 53.6 °F 53.6 °F 100% 29.66 in 0.8 mi NW 2.3 mph - N/A   Clear
3:13 AM 53.6 °F 51.8 °F 94% 29.67 in 1.0 mi Calm Calm - N/A   Clear
3:18 AM 53.6 °F 53.6 °F 100% 29.67 in 1.8 mi Calm Calm - N/A   Clear
3:23 AM 53.6 °F 53.6 °F 100% 29.67 in 3.0 mi Calm Calm - N/A   Partly Cloudy
3:58 AM 53.8 °F 53.6 °F 99% 29.68 in 3.0 mi WNW 2.3 mph - N/A   Overcast
4:58 AM 53.6 °F 53.2 °F 99% 29.70 in 3.0 mi Calm Calm - N/A   Overcast
5:38 AM 53.6 °F 53.6 °F 100% 29.69 in 3.0 mi Calm Calm - N/A   Mostly Cloudy
5:48 AM 51.8 °F 51.8 °F 100% 29.69 in 2.5 mi Calm Calm - N/A   Mostly Cloudy
5:53 AM 51.8 °F 51.8 °F 100% 29.70 in 3.0 mi Calm Calm - N/A   Mostly Cloudy
5:58 AM 52.5 °F 52.2 °F 99% 29.71 in 3.0 mi Calm Calm - N/A   Overcast
6:33 AM 51.8 °F 51.8 °F 100% 29.70 in 3.0 mi Calm Calm - N/A   Mostly Cloudy
6:38 AM 51.8 °F 51.8 °F 100% 29.70 in 2.5 mi Calm Calm - N/A   Mostly Cloudy
6:43 AM 51.8 °F 51.8 °F 100% 29.70 in 1.8 mi Calm Calm - N/A   Mostly Cloudy
6:48 AM 51.8 °F 51.8 °F 100% 29.70 in 1.5 mi Calm Calm - N/A   Mostly Cloudy
6:53 AM 51.8 °F 51.8 °F 100% 29.70 in 1.8 mi Calm Calm - N/A   Scattered Clouds
6:58 AM 51.3 °F 50.9 °F 99% 29.71 in 2.5 mi Calm Calm - N/A   Scattered Clouds
7:08 AM 50.0 °F 50.0 °F 100% 29.70 in 1.0 mi Calm Calm - N/A   Partly Cloudy
7:13 AM 50.0 °F 50.0 °F 100% 29.70 in 1.0 mi Calm Calm - N/A   Clear
7:18 AM 50.0 °F 50.0 °F 100% 29.70 in 1.2 mi Calm Calm - N/A   Clear
7:23 AM 50.0 °F 50.0 °F 100% 29.70 in 1.8 mi Calm Calm - N/A   Partly Cloudy
7:28 AM 50.0 °F 50.0 °F 100% 29.70 in 2.5 mi Calm Calm - N/A   Partly Cloudy
7:33 AM 50.0 °F 50.0 °F 100% 29.70 in 2.0 mi Calm Calm - N/A   Scattered Clouds
7:38 AM 50.0 °F 50.0 °F 100% 29.71 in 1.8 mi Calm Calm - N/A   Scattered Clouds
7:43 AM 50.0 °F 50.0 °F 100% 29.71 in 2.0 mi Calm Calm - N/A   Mostly Cloudy
7:48 AM 50.0 °F 50.0 °F 100% 29.71 in 1.8 mi Calm Calm - N/A   Mostly Cloudy
7:58 AM 49.3 °F 49.1 °F 99% 29.72 in 1.8 mi Calm Calm - N/A   Mostly Cloudy
8:08 AM 50.0 °F 50.0 °F 100% 29.71 in 2.0 mi Calm Calm - N/A   Mostly Cloudy
8:58 AM 52.9 °F 52.7 °F 99% 29.74 in 2.0 mi Calm Calm - N/A   Mostly Cloudy
9:23 AM 57.2 °F 53.6 °F 88% 29.73 in 2.5 mi Calm Calm - N/A   Mostly Cloudy
9:43 AM 60.8 °F 51.8 °F 72% 29.73 in 2.0 mi Variable 1.2 mph - N/A   Haze
9:48 AM 60.8 °F 51.8 °F 72% 29.73 in 3.0 mi NW 1.2 mph - N/A   Haze
9:58 AM 61.3 °F 51.4 °F 70% 29.74 in 10.0 mi Calm Calm - N/A   Clear
10:58 AM 68.0 °F 46.9 °F 47% 29.73 in 10.0 mi Calm Calm - N/A   Clear
11:58 AM 69.1 °F 45.5 °F 43% 29.71 in 10.0 mi West 6.9 mph - N/A   Clear
12:58 PM 68.2 °F 41.5 °F 38% 29.71 in 10.0 mi SW 8.1 mph - N/A   Clear
1:58 PM 69.4 °F 42.6 °F 38% 29.70 in 10.0 mi NW 8.1 mph - N/A   Clear
2:58 PM 67.5 °F 42.8 °F 41% 29.69 in 10.0 mi NW 6.9 mph - N/A   Mostly Cloudy
3:58 PM 65.8 °F 42.4 °F 43% 29.71 in 10.0 mi NNW 12.7 mph 21.9 mph N/A   Overcast
4:58 PM 62.6 °F 40.6 °F 45% 29.75 in 10.0 mi NNW 9.2 mph - N/A   Partly Cloudy
5:58 PM 61.2 °F 37.2 °F 41% 29.77 in 10.0 mi NW 9.2 mph - N/A   Overcast
6:01 PM 60.8 °F 37.4 °F 42% 29.77 in 10.0 mi NW 8.1 mph - N/A Rain Light Rain
6:22 PM 57.2 °F 42.8 °F 59% 29.78 in 10.0 mi NNW 5.8 mph - N/A   Overcast
6:51 PM 59.0 °F 39.2 °F 48% 29.80 in 10.0 mi NW 5.8 mph 16.1 mph N/A Rain Light Rain
6:58 PM 58.8 °F 39.6 °F 49% 29.81 in 10.0 mi Variable 4.6 mph - 0.00 in Rain Light Rain
7:02 PM 59.0 °F 39.2 °F 48% 29.80 in 10.0 mi NW 5.8 mph - N/A   Overcast
7:58 PM 57.7 °F 37.0 °F 46% 29.85 in 10.0 mi WNW 9.2 mph - 0.00 in   Scattered Clouds
8:58 PM 55.6 °F 37.0 °F 50% 29.86 in 10.0 mi NW 8.1 mph - N/A   Partly Cloudy
9:58 PM 53.6 °F 37.4 °F 54% 29.88 in 10.0 mi NW 9.2 mph - N/A   Clear
10:58 PM 52.7 °F 36.9 °F 55% 29.90 in 10.0 mi WNW 9.2 mph - N/A   Clear